Location: Béaulencourt
(50.0796°N, 2.8795°E)
Time: 19:50:47
(UTC+00:00)

Envisat - Pass Details

Date: 14 March 2026
Orbit: 761 x 762 km, 98.4° (Epoch: 14 April)

Event Time Altitude Azimuth Distance (km) Brightness Sun altitude
Rises 01:41:45 0° 22° (NNE) 3,237 7.2 -37.6°
Reaches altitude 10° 01:44:21 10° 33° (NNE) 2,306 6.2 -37.4°
Enters shadow 01:46:57 24° 59° (ENE) 1,560 5.0 -37.2°
